Weather Roundup
Issued by NWS Chicago, IL

Home | Current Version | Previous Version | Graphics & Text | Print | Product List | Glossary On
Versions: 1 2 3 4 5 6 7 8 9 10 11 12 13 14 15 16 17 18 19 20 21 22 23 24 25 26 27 28 29 30 31 32 33 34 35 36 37 38 39 40 41 42 43 44 45 46 47 48 49 50
000
NZUS59 KLOT 291712
HRRLOT

CHICAGO AREA WEATHER ROUNDUP
NATIONAL WEATHER SERVICE CHICAGO/ROMEOVILLE IL
1200 PM CDT WED JUL 29 2015

NOTE: "FAIR" INDICATES FEW OR NO CLOUDS BELOW 12,000 FEET WITH NO
SIGNIFICANT WEATHER AND/OR OBSTRUCTIONS TO VISIBILITY.

* THESE STATIONS ARE NOT UNDER NWS QUALITY CONTROL. THEY ALSO MAY NOT
  REPORT WEATHER SUCH AS PRECIPITATION OR FOG.

ILZ005-006-012>014-019>023-291800-
NORTHEAST ILLINOIS

CITY           SKY/WX    TMP DP  RH WIND       PRES   REMARKS
OHARE          MOSUNNY   85  58  39 NW12      29.98S HX  84
MIDWAY         MOSUNNY   85  67  54 NW17      29.98R HX  87
AURORA         SUNNY     81  60  48 NW10G21   30.01S HX  82
LANSING*       CLOUDY    83  70  64 W7        29.98R HX  87
JOLIET*        MOSUNNY   84  65  52 NW10G17   30.00R HX  85
WAUKEGAN       MOSUNNY   81  64  56 VRB5      29.98S HX  82
DUPAGE AIRPORT MOSUNNY   84  58  40 NW17      30.00S HX  83
WHEELING       MOSUNNY   85  60  42 NW12G17   29.99S HX  85
KANKAKEE*      CLOUDY    82  76  82 NW10G16   30.00R HX  88
MORRIS*        MOSUNNY   82  66  59 N7        30.00S HX  84
NORTHERLY IS     N/A     81  67  62 W8          N/A  HX  83
$$

WIZ051-052-058>065-066-070>072-291800-
SOUTHEAST WISCONSIN

CITY           SKY/WX    TMP DP  RH WIND       PRES   REMARKS
MILWAUKEE      PTSUNNY   81  50  33 NW16G26   29.96R HX  80
KENOSHA*       PTSUNNY   82  63  52 W14G22    29.98S HX  83
RACINE*        PTSUNNY   82  56  40 NW9G20    29.99R HX  82
BURLINGTON     MOSUNNY   79  51  37 W13       29.99S
WAUKESHA       SUNNY     79  54  41 W13G23    29.99R
WEST BEND      MOSUNNY   79  46  31 W16G23    29.95F
$$

INZ001>003-010>013-019-020-291800-
NORTHWEST INDIANA

CITY           SKY/WX    TMP DP  RH WIND       PRES   REMARKS
GARY*          CLOUDY    81  73  78 N13       29.99R HX  85
MICHIGAN CITY* NOT AVBL
RENSSELAER*    NOT AVBL
VALPARAISO     PTSUNNY   84  73  69 N8        29.99R HX  90
$$

LMZ740>746-291800-
SOUTHERN LAKE MICHIGAN

STATION/POSITION TIME  SKY/WX   TEMP WIND        PRES    VSBY
                                AIR  DIR/SP/G
                 (UTC)          (F)  (DEG/KT/KT) (MB)    (MI)
HARRISON CRIB    1600            76  360/ 10/ 12   N/A
BURNHAM HARBOR   1700            82  320/  8/ 11   N/A
CALUMET HARBOR   1600            80   20/  6/ 10   N/A
BURNS HARBOR     1600            76  310/  7/  9 1015.6R
MICHIGAN CITY    1600            75  240/ 10/ 11   N/A
$$

ABBREVIATIONS USED IN REMARKS
   TC - TEMPERATURE IN CELSIUS
  WCI - WIND CHILL INDEX
   HX - HEAT INDEX
  VSB - VISIBILITY
$$


USA.gov is the U.S. government's official web portal to all federal, state and local government web resources and services.